338  
SXUS52 KCHS 150127  
OSOCHS  
 
MARINE OBSERVATIONS  
NATIONAL WEATHER SERVICE CHARLESTON SC  
900 PM EDT FRI AUG 14 2020  
   
..DOWNTOWN CHARLESTON AND HARBOR
 
 
 
CITY SKY/WX TMP DP RH WIND PRES REMARKS  
WATERFRONT PRK N/A 84 79 85 SW7 29.78R HX 96  
   
..LAKE MOULTRIE
 
 
 
CITY SKY/WX TMP DP RH WIND PRES REMARKS  
PINOPOLIS N/A 81 77 89 CALM 29.87R  
   
..LAKE AND SUPPLEMENTAL COASTAL OBSERVATIONS
 
 
 
STATION/POSITION TIME TEMP WIND PRES WAVE SWELL  
AIR SEA DIR/SP/G HT/PER HT/PER/DIR  
(UTC) (F) (DEG/KT/KT) (MB) (FT/S) (FT/S/D)  
CHRLSTN HARBOR 0042 84 87 200/ 8/ 11 1014.0R  
FORT PULASKI 0042 81 86 210/ 6/ 9 1014.2R  
SAPELO ISLAND 0100 79 190/ 6 1014.0  
WINYAH BAY 0045 82 210/ 5 1013.0S  
LAKE MURRAY 0120 81 230/ 5/ 7 N/A  
ACE BASIN NERRS 0045 80 CALM 1014.0S  
 
   
..C-MAN AND BUOY OBSERVATIONS
 
 
 
STATION/POSITION TIME TEMP WIND PRES WAVE SWELL  
AIR SEA DIR/SP/G HT/PER HT/PER/DIR  
(UTC) (F) (DEG/KT/KT) (MB) (FT/S) (FT/S/D)  
BUOY 41004 0110 83 200/ 16/ 17 1014.3  
BUOY 41008 0050 83 85 210/ 14/ 16 1013.8R 2/ 4 2/150/10  
FOLLY BEACH CMAN 0100 84 200/ 16/ 19 1014.5R  
PRITCHARDS ISLAN NOT AVBL  
CAPERS NS BUOY 0108 84 85 210/ 16/ 21 1013.9R  
FRIPP NS BUOY 0108 83 86 230/ 12/ 17 1013.6R  
5E ST. MARYS GA 0100 83 85 N/A 2/10  
 
 
STATION/POSITION TIME TEMP WIND PRES WAVE SWELL  
AIR SEA DIR/SP/G HT/PER HT/PER/DIR  
(UTC) (F) (DEG/KT/KT) (MB) (FT/S) (FT/S/D)  
FRYING PAN BUOY 0110 82 82 220/ 12/ 14 1013.6  
BUOY 41025 0110 82 83 230/ 16/ 17 N/A  
CAPE LOOKOUT NC 0100 81 230/ 7/ 10 1013.6R  
BUOY 41002 0110 83 84 200/ 10/ 12 1016.4  
BUOY 41010 0110 85 86 170/ 8/ 10 1016.3  
ST AUGUSTINE FL 0100 76 84 210/ 5/ 6 1014.6F  
 

 
 
 
CLICK HERE TO GO TO PREVIOUS BULLETINS.

The Nexlab SC Page
The Nexlab GA Page Main Text Page